Temp
13 13 13 14 14 14 14 14 14 13 13 13 13 13 13 13 13 13 12 12 12 12 12 12 12 12 12 12 12 12 12 12 12 12 12 11 11 11 11 11 11 11 11 11 11 11 11 11 11 11 11 11 11 11 11 11 11 11 11 11 11 11 11 11 11 11 11 11 12 12 12 12 12 12 12 12 12 12 12 12 12 12 12 12 12 12
13 13 13 13 14 14 14 14 13 13 13 13 13 13 13 13 13 12 12 12 12 12 12 12 12 12 12 12 12 12 12 12 12 11 11 11 11 11 11 11 11 11 11 11 11 11 11 11 11 11 11 11 11 11 11 11 11 11 11 11 11 11 11 11 11 11 11 11 11 11 11 11 11 11 11 12 12 12 12 12 12 12 12 12 12 12
13 13 13 13 13 13 13 13 13 13 13 13 13 13 13 13 13 12 12 12 12 12 12 12 12 12 12 12 12 12 12 12 11 11 11 11 11 11 11 11 11 11 11 11 11 11 11 11 11 11 11 11 11 11 11 11 11 11 11 11 11 11 11 11 11 11 11 11 11 11 11 11 11 11 11 11 11 11 11 11 12 12 12 12 12 12
13 12 13 13 13 13 13 13 13 13 13 13 13 13 13 13 13 12 12 12 12 12 12 12 12 12 12 12 12 12 12 12 11 11 11 11 11 11 11 11 11 11 11 11 11 11 11 11 11 11 11 11 11 11 11 11 11 11 11 11 11 11 11 11 11 11 11 11 11 11 11 11 11 11 11 11 11 11 11 11 11 11 11 11 11 11
12 12 12 13 13 13 13 13 13 13 13 13 13 13 13 13 13 12 12 12 12 12 12 12 12 12 12 12 12 11 11 11 11 11 11 11 11 11 11 11 11 11 11 11 11 11 10 11 11 11 11 10 10 10 10 11 11 11 11 11 11 10 10 11 11 11 11 11 10 10 10 10 10 10 10 10 10 10 10 11 11 11 11 11 11 11
12 12 12 12 12 13 13 13 13 13 13 13 12 12 12 12 12 12 12 12 12 12 12 12 11 11 11 11 11 11 11 11 11 11 11 11 11 11 11 11 11 11 11 11 10 10 10 11 11 11 10 10 10 10 10 10 10 10 10 10 10 10 10 10 10 10 10 10 10 10 10 10 10 10 10 10 10 10 10 10 10 11 11 11 11 11
12 12 12 12 12 12 12 13 12 12 12 12 12 12 12 12 12 12 12 12 12 12 11 11 11 11 11 11 11 11 11 11 11 11 11 10 10 10 10 10 10 11 11 11 11 10 11 11 11 10 10 10 10 10 10 10 10 10 10 10 10 10 10 10 10 10 10 10 10 9 9 9 9 9 9 9 9 10 10 10 10 10 10 10 11 11
12 12 12 12 12 12 12 12 12 12 12 12 12 12 12 12 12 12 12 12 12 11 11 11 11 11 11 11 11 11 11 11 11 11 10 10 10 10 10 10 10 11 11 11 10 10 10 10 10 10 10 10 10 10 10 10 10 10 10 10 9 9 9 9 9 9 9 9 9 9 9 9 9 9 9 9 9 9 9 9 10 10 10 10 10 10
11 11 11 11 12 12 12 12 12 12 12 12 12 12 12 12 11 11 11 11 11 11 11 11 11 11 11 11 11 11 11 11 11 10 10 10 10 10 10 10 10 10 10 10 10 10 10 10 10 10 10 10 10 10 10 10 10 9 9 9 9 9 9 9 9 9 9 9 9 9 9 9 9 9 9 9 9 9 9 9 9 9 9 10 10 10
10 10 10 11 11 11 11 11 11 11 11 11 11 12 12 11 11 11 11 11 11 11 11 11 11 11 11 11 11 10 10 10 10 10 10 10 10 10 10 10 10 10 10 10 10 10 10 10 10 10 10 9 9 9 9 9 9 9 9 9 9 9 9 9 9 9 9 9 9 9 9 9 9 9 9 9 9 9 9 9 9 9 9 9 9 9
8 8 9 9 10 10 10 10 10 10 10 10 11 11 11 11 11 11 10 10 11 11 10 10 11 10 10 10 10 10 10 10 10 10 10 10 10 10 10 10 10 10 10 10 10 10 10 10 10 10 10 9 9 9 9 9 9 9 9 9 9 9 9 9 9 9 9 9 9 9 9 9 9 9 8 8 8 8 8 8 8 8 9 9 9 9
7 7 8 8 9 9 9 9 9 9 9 10 10 10 10 10 10 10 10 10 10 10 10 10 10 10 10 10 10 10 10 10 10 9 9 9 9 10 10 10 10 10 10 10 10 10 10 10 9 9 9 9 9 9 9 9 9 9 9 9 9 9 9 9 9 9 9 9 9 9 9 9 8 8 8 8 8 8 8 8 8 8 8 8 8 9
6 6 7 7 7 7 7 7 7 8 8 8 8 8 9 9 9 9 10 10 10 10 10 10 10 9 9 9 9 9 9 9 9 9 9 9 9 9 9 9 10 10 10 10 10 9 9 9 9 9 9 9 9 9 9 9 9 9 9 9 9 9 9 9 9 9 9 9 9 9 8 8 8 8 8 8 8 8 8 8 8 8 8 8 8 8
5 5 6 6 6 5 5 5 5 5 6 6 6 6 6 7 8 8 9 9 9 9 9 9 9 8 8 8 8 8 8 9 9 9 9 9 9 9 9 9 9 9 9 9 9 9 9 9 9 9 9 9 9 9 9 9 9 9 8 8 8 8 8 8 9 9 9 9 9 8 8 8 8 8 8 8 8 8 8 8 8 8 8 8 8 8
4 4 5 5 5 4 4 4 4 4 4 4 5 5 6 6 7 7 8 8 7 7 7 7 7 7 7 7 7 8 8 8 8 8 8 8 8 8 8 8 8 9 9 9 9 9 9 9 9 9 9 9 9 9 9 9 8 8 8 8 8 8 8 8 8 9 8 8 8 8 8 8 8 8 8 7 7 7 7 7 7 7 7 7 7 7
3 4 4 4 4 3 3 3 3 3 3 3 4 4 5 5 6 6 7 7 6 6 6 6 6 6 6 6 7 7 7 7 8 8 8 8 8 8 8 8 8 8 8 8 9 9 8 8 8 8 8 8 8 8 8 8 8 8 8 8 8 8 8 8 8 8 8 8 8 7 7 7 7 7 7 7 7 7 7 7 7 7 7 7 7 7
3 3 3 3 3 3 3 2 2 2 3 3 3 4 4 4 4 5 6 6 6 6 6 6 5 5 5 6 6 6 7 7 7 7 7 7 7 7 7 7 8 8 8 8 8 8 8 8 8 8 8 8 8 8 8 7 7 7 7 7 8 8 8 8 8 8 8 8 7 7 7 7 7 7 7 8 8 8 8 8 8 8 7 7 7 7
2 2 3 3 3 3 2 2 2 2 3 3 3 4 4 4 4 4 5 5 5 5 5 5 5 4 5 5 6 6 6 6 6 6 7 7 7 7 7 7 7 7 8 8 8 8 8 8 8 8 8 7 7 7 7 7 7 7 7 7 7 7 7 7 7 7 7 7 7 7 7 7 7 7 7 8 8 8 8 8 7 7 7 7 7 7
2 2 2 2 2 2 2 2 1 2 2 2 3 3 3 3 3 3 4 4 4 4 4 4 4 4 5 5 5 5 5 5 5 5 6 6 7 7 7 7 7 7 7 8 8 8 8 7 7 7 7 7 7 7 7 7 7 7 7 7 7 7 7 7 7 7 7 7 7 7 6 6 7 7 7 7 7 7 7 7 7 7 7 7 7 7
1 1 1 1 2 1 1 1 1 1 1 2 2 2 2 2 3 2 2 2 2 2 3 3 3 3 4 4 4 4 4 4 4 4 5 6 6 6 6 7 7 7 7 7 7 7 7 7 7 7 7 7 7 7 7 7 6 6 6 6 6 7 7 7 7 7 7 6 6 6 6 6 6 6 6 6 7 7 7 7 7 7 7 7 7 7
1 0 0 1 1 1 1 0 1 1 1 1 2 2 2 2 2 2 1 2 2 2 2 2 2 3 3 4 4 4 4 4 4 4 5 5 6 6 6 6 6 7 7 7 6 6 6 6 7 7 7 7 7 6 6 6 6 6 6 6 6 6 6 6 6 6 6 6 5 5 6 6 6 6 6 6 6 6 6 7 7 7 7 7 7 7
0 -0 0 0 0 0 0 0 0 1 1 1 1 1 1 1 1 1 1 1 1 2 2 2 2 3 3 3 4 4 4 4 4 4 5 5 5 5 5 6 6 6 6 6 6 6 6 6 6 6 6 6 6 6 6 6 6 6 6 6 6 6 6 5 5 5 5 5 5 5 5 5 5 6 6 6 6 6 6 6 6 6 6 6 6 6
-0 -0 -0 -0 -0 -0 -0 0 0 0 1 1 1 1 1 1 1 1 1 1 1 1 2 2 2 2 3 3 3 3 4 4 4 4 4 5 5 5 5 5 5 5 5 5 6 6 6 6 6 6 6 6 6 6 6 5 5 5 5 5 5 5 5 5 5 5 5 5 5 5 5 5 5 5 5 5 6 6 6 6 6 6 6 6 6 6
-0 -0 -0 -0 -0 -0 0 0 0 0 0 0 0 1 1 1 1 1 1 1 1 1 1 1 2 2 2 3 3 3 4 4 4 4 4 5 5 5 5 5 5 5 5 5 5 5 5 5 5 5 5 5 5 5 5 5 5 5 5 5 5 4 4 4 4 4 4 4 4 4 4 4 5 5 5 5 5 5 5 6 6 6 6 6 6 6
-0 -0 -0 -0 -0 0 0 0 0 0 0 0 0 0 0 0 0 0 1 1 1 1 1 1 2 2 2 3 3 4 4 4 4 4 4 5 5 5 5 5 5 5 5 5 5 5 5 5 5 5 5 5 5 5 5 5 5 5 4 4 4 4 4 4 4 4 4 4 4 4 4 4 4 4 5 5 5 5 5 5 5 6 6 6 6 6
-1 -0 -0 -0 -0 0 0 0 0 0 0 0 0 0 0 0 0 0 0 0 0 1 1 1 1 2 2 2 3 3 3 3 3 3 4 4 4 4 4 4 4 4 4 4 4 4 4 4 4 4 4 4 4 4 4 4 4 4 4 4 4 4 4 4 4 4 4 4 4 4 4 4 4 4 4 5 5 5 5 5 5 5 5 6 6 6
-1 -1 -1 -0 -0 -0 -0 -0 -0 -0 0 0 0 1 0 0 0 0 0 0 0 0 1 1 0 0 1 2 3 3 3 3 3 3 3 3 4 3 3 3 2 2 3 3 3 3 4 4 4 4 4 4 4 4 4 4 4 4 4 3 3 3 3 4 4 4 3 3 3 3 3 3 3 4 4 4 4 4 4 4 5 5 5 5 5 5
-1 -1 -1 -1 -1 -1 -1 -1 -1 -0 0 0 0 0 0 0 0 0 -0 -0 0 0 0 0 -1 -1 0 2 3 2 2 2 2 2 2 3 3 2 1 1 2 2 2 2 3 3 3 3 3 3 3 3 3 3 3 3 3 3 3 3 3 3 3 3 3 3 3 3 3 3 3 3 3 3 3 4 4 4 4 4 4 4 5 5 5 5
-2 -2 -2 -2 -2 -2 -1 -1 -1 -1 -1 -1 -1 -1 -1 -0 -1 -1 -1 -1 -0 -0 -0 -0 -0 -0 0 1 2 2 1 1 1 1 2 2 2 0 0 1 1 1 1 1 2 2 3 3 3 3 3 3 3 3 3 3 3 3 3 3 3 3 3 3 3 3 3 3 3 3 3 3 3 3 3 3 3 3 4 4 4 4 4 4 4 4
-2 -2 -2 -2 -2 -2 -2 -1 -1 -1 -1 -2 -2 -2 -1 -1 -2 -2 -2 -1 -1 -1 -1 -2 -1 -1 -1 0 1 1 -0 -1 -1 0 1 1 -0 -1 -0 -0 -0 -0 -0 -0 -0 -0 1 2 2 2 2 2 2 2 2 2 2 2 2 2 3 3 3 2 2 2 2 2 2 2 2 2 2 2 2 3 3 3 3 3 3 3 3 4 4 4
-3 -3 -3 -3 -2 -2 -2 -2 -2 -2 -2 -2 -2 -2 -2 -2 -2 -2 -2 -2 -2 -2 -2 -3 -3 -2 -2 -1 -1 -1 -2 -2 -2 -1 -0 -1 -2 -2 -2 -1 -1 -2 -1 -1 -2 -2 -1 -0 1 2 2 2 2 1 1 1 1 1 1 2 2 2 2 1 1 1 1 2 2 2 2 2 2 2 2 2 2 2 3 3 3 3 3 3 3 3
-3 -3 -3 -3 -3 -3 -2 -2 -2 -2 -2 -2 -3 -3 -3 -3 -3 -3 -3 -3 -3 -3 -3 -3 -3 -3 -3 -2 -3 -3 -3 -3 -3 -2 -2 -2 -2 -3 -2 -2 -2 -2 -2 -2 -2 -2 -3 -2 -1 0 0 0 0 0 0 0 0 1 1 1 1 1 1 1 1 1 1 1 1 1 2 2 2 2 2 2 2 2 2 2 2 2 2 2 3 3
-3 -3 -3 -3 -3 -3 -3 -3 -3 -3 -3 -3 -3 -3 -4 -4 -4 -4 -4 -4 -4 -4 -4 -4 -4 -3 -3 -3 -3 -3 -3 -3 -3 -3 -3 -3 -3 -3 -3 -3 -3 -3 -2 -2 -2 -2 -3 -2 -1 -1 -1 -1 -1 -0 -0 -0 -0 -0 -0 0 0 0 0 0 0 0 0 0 1 1 1 1 1 1 2 2 2 2 2 2 2 2 2 2 2 2
-4 -3 -3 -3 -3 -3 -3 -3 -3 -4 -4 -4 -4 -4 -4 -4 -4 -4 -4 -4 -4 -4 -4 -4 -4 -4 -4 -4 -4 -3 -3 -3 -3 -3 -3 -3 -3 -3 -3 -3 -3 -3 -3 -3 -3 -3 -2 -2 -2 -2 -2 -1 -1 -1 -1 -1 -1 -1 -1 -0 -0 -0 -0 -0 -0 -0 -0 -0 0 0 0 1 1 1 1 1 1 1 1 1 2 2 2 2 2 2
-4 -4 -4 -4 -4 -4 -4 -4 -4 -4 -5 -5 -5 -5 -5 -5 -5 -5 -5 -5 -5 -5 -5 -5 -5 -5 -5 -5 -5 -4 -4 -4 -4 -4 -4 -4 -4 -4 -4 -4 -4 -3 -3 -3 -3 -3 -3 -3 -3 -3 -3 -2 -2 -2 -2 -1 -1 -1 -1 -1 -1 -1 -1 -1 -1 -1 -1 -0 -0 -0 -0 0 0 0 1 1 1 1 1 1 1 1 2 2 2 2
-4 -4 -4 -5 -5 -5 -5 -5 -5 -5 -5 -5 -5 -5 -5 -5 -5 -5 -5 -5 -5 -5 -5 -5 -5 -5 -5 -5 -5 -5 -5 -4 -4 -4 -4 -4 -4 -4 -4 -4 -4 -4 -4 -4 -4 -4 -4 -3 -3 -3 -3 -3 -3 -2 -2 -2 -2 -1 -1 -1 -1 -1 -1 -1 -1 -1 -1 -1 -1 -1 -0 -0 -0 -0 0 0 0 0 1 1 1 1 1 2 2 2
-5 -5 -5 -5 -5 -5 -5 -6 -6 -6 -6 -6 -6 -6 -6 -6 -6 -6 -6 -6 -6 -6 -6 -5 -5 -5 -5 -5 -5 -5 -5 -5 -5 -5 -5 -4 -4 -4 -4 -4 -4 -4 -4 -4 -4 -4 -4 -3 -3 -3 -3 -3 -3 -2 -2 -2 -2 -2 -2 -1 -1 -1 -1 -1 -1 -1 -1 -1 -1 -1 -1 -0 -0 -0 -0 -0 -0 0 0 1 1 1 1 1 2 2
-5 -6 -6 -6 -6 -6 -6 -6 -6 -6 -6 -6 -6 -6 -6 -6 -6 -6 -6 -6 -6 -6 -6 -6 -6 -5 -5 -5 -5 -5 -5 -5 -5 -5 -5 -5 -4 -4 -4 -4 -4 -4 -4 -4 -4 -4 -3 -3 -3 -3 -3 -3 -2 -2 -2 -2 -2 -2 -2 -2 -2 -2 -1 -1 -1 -1 -1 -1 -1 -1 -1 -1 -1 -1 -0 -0 -0 -0 -0 0 0 1 1 1 1 2
-6 -6 -7 -7 -7 -7 -7 -7 -7 -7 -7 -7 -7 -7 -7 -7 -7 -7 -7 -7 -7 -6 -6 -6 -6 -6 -6 -6 -5 -5 -5 -5 -5 -5 -5 -5 -5 -4 -4 -4 -4 -4 -4 -4 -4 -4 -3 -3 -3 -3 -3 -3 -2 -2 -2 -2 -2 -2 -2 -2 -2 -2 -2 -1 -1 -1 -1 -1 -1 -1 -1 -1 -1 -1 -1 -1 -1 -1 -1 -1 -0 -0 0 0 1 1
-7 -7 -7 -7 -7 -7 -7 -7 -7 -7 -7 -7 -7 -7 -7 -7 -7 -7 -7 -7 -7 -7 -7 -6 -6 -6 -6 -6 -6 -6 -5 -5 -5 -5 -5 -5 -5 -5 -5 -4 -4 -4 -4 -4 -4 -4 -4 -3 -3 -3 -3 -3 -3 -3 -2 -2 -2 -2 -2 -2 -2 -2 -2 -2 -2 -1 -1 -1 -1 -1 -1 -1 -1 -1 -1 -1 -1 -1 -1 -1 -1 -1 -0 -0 -0 0
-7 -7 -8 -8 -8 -8 -8 -8 -8 -8 -8 -8 -8 -8 -7 -7 -7 -7 -7 -7 -7 -7 -7 -7 -7 -6 -6 -6 -6 -6 -6 -6 -5 -5 -5 -5 -5 -5 -5 -5 -4 -4 -4 -4 -4 -4 -4 -4 -3 -3 -3 -3 -3 -3 -3 -3 -2 -2 -2 -2 -2 -2 -2 -2 -2 -2 -2 -2 -1 -1 -1 -1 -1 -1 -1 -1 -1 -1 -1 -1 -1 -1 -0 -0 -0 -0
-8 -8 -8 -8 -8 -8 -8 -8 -8 -8 -8 -8 -8 -8 -8 -8 -8 -8 -8 -7 -7 -7 -7 -7 -7 -7 -7 -6 -6 -6 -6 -6 -6 -6 -6 -5 -5 -5 -5 -5 -5 -5 -5 -4 -4 -4 -4 -4 -3 -3 -3 -3 -3 -3 -3 -3 -2 -2 -2 -2 -2 -2 -2 -2 -2 -2 -2 -2 -2 -2 -2 -2 -2 -2 -1 -1 -1 -1 -1 -1 -1 -1 -1 -1 -0 -0
-8 -8 -8 -8 -8 -8 -8 -8 -8 -8 -8 -8 -8 -8 -8 -8 -8 -8 -8 -8 -8 -8 -8 -7 -7 -7 -7 -7 -7 -7 -6 -6 -6 -6 -6 -6 -5 -5 -5 -5 -5 -5 -5 -5 -5 -4 -4 -4 -4 -3 -3 -3 -3 -3 -3 -3 -2 -2 -2 -2 -2 -3 -3 -3 -3 -3 -3 -2 -2 -2 -2 -2 -2 -2 -2 -2 -2 -1 -1 -1 -1 -1 -1 -1 -0 -0
-8 -8 -9 -9 -9 -9 -9 -9 -9 -9 -9 -8 -8 -8 -8 -8 -8 -8 -8 -8 -8 -8 -8 -8 -8 -7 -7 -7 -7 -7 -7 -7 -6 -6 -6 -6 -6 -6 -5 -5 -5 -5 -5 -5 -5 -5 -5 -5 -4 -4 -4 -4 -3 -3 -3 -3 -3 -3 -3 -3 -3 -3 -3 -3 -3 -3 -3 -3 -2 -2 -2 -2 -2 -2 -2 -2 -2 -2 -1 -1 -1 -1 -1 -1 -1 -1
-9 -9 -9 -9 -9 -9 -9 -9 -9 -9 -9 -9 -9 -9 -9 -9 -8 -8 -8 -8 -8 -8 -8 -8 -8 -8 -8 -7 -7 -7 -7 -7 -7 -7 -6 -6 -6 -6 -6 -6 -5 -5 -5 -5 -5 -5 -5 -5 -5 -5 -4 -4 -4 -4 -3 -3 -3 -3 -3 -3 -3 -3 -3 -3 -3 -3 -3 -3 -3 -2 -2 -2 -2 -2 -2 -2 -2 -2 -2 -2 -1 -1 -1 -1 -1 -1
-9 -9 -9 -9 -9 -9 -10 -10 -9 -9 -9 -9 -9 -9 -9 -9 -9 -9 -8 -8 -8 -8 -8 -8 -8 -8 -8 -8 -8 -8 -7 -7 -7 -7 -7 -7 -6 -6 -6 -6 -6 -6 -6 -6 -5 -5 -5 -5 -5 -5 -5 -5 -4 -4 -4 -4 -4 -4 -4 -4 -4 -4 -4 -4 -3 -3 -3 -3 -3 -2 -2 -2 -2 -2 -2 -2 -2 -2 -2 -2 -2 -2 -1 -1 -1 -1
-9 -9 -9 -10 -10 -10 -10 -10 -10 -10 -10 -10 -9 -9 -9 -9 -9 -9 -9 -8 -8 -8 -8 -8 -8 -8 -8 -8 -8 -8 -8 -7 -7 -7 -7 -7 -7 -7 -7 -6 -6 -6 -6 -6 -6 -6 -5 -5 -5 -5 -5 -5 -5 -5 -5 -4 -4 -4 -4 -4 -4 -4 -4 -4 -3 -3 -3 -3 -2 -2 -2 -2 -2 -3 -3 -3 -3 -2 -2 -2 -2 -2 -2 -2 -1 -1
-10 -10 -10 -10 -10 -10 -10 -10 -10 -10 -10 -10 -10 -10 -10 -10 -9 -9 -9 -9 -9 -9 -9 -9 -8 -8 -8 -8 -8 -8 -8 -8 -7 -7 -7 -7 -7 -7 -7 -7 -7 -7 -6 -6 -6 -6 -6 -6 -5 -5 -5 -5 -5 -5 -5 -5 -5 -4 -4 -4 -4 -4 -4 -4 -3 -3 -3 -2 -2 -2 -2 -3 -3 -3 -3 -3 -3 -3 -3 -3 -2 -2 -2 -2 -2 -2
-10 -10 -10 -10 -10 -10 -10 -10 -10 -10 -10 -10 -10 -10 -10 -10 -10 -10 -9 -9 -9 -9 -9 -9 -8 -8 -8 -8 -8 -8 -8 -8 -7 -7 -7 -7 -7 -7 -7 -7 -7 -7 -7 -6 -6 -6 -6 -6 -6 -5 -5 -5 -5 -5 -5 -5 -4 -4 -4 -4 -4 -4 -4 -3 -3 -3 -3 -2 -3 -3 -3 -3 -4 -4 -4 -4 -4 -4 -3 -3 -3 -2 -2 -2 -2 -2
-10 -10 -10 -10 -10 -10 -10 -10 -10 -10 -10 -10 -10 -10 -10 -10 -10 -10 -10 -10 -10 -9 -9 -9 -9 -8 -8 -8 -8 -8 -8 -8 -7 -7 -7 -7 -7 -7 -7 -7 -7 -7 -7 -7 -7 -6 -6 -6 -6 -6 -5 -5 -5 -5 -5 -4 -4 -4 -4 -4 -4 -4 -4 -3 -3 -3 -3 -3 -3 -4 -4 -4 -4 -4 -4 -4 -4 -4 -4 -3 -3 -3 -3 -2 -2 -2
-11 -11 -11 -11 -11 -11 -11 -10 -10 -10 -10 -10 -10 -10 -10 -10 -10 -10 -10 -10 -10 -10 -10 -9 -9 -9 -8 -8 -8 -8 -8 -8 -7 -7 -7 -7 -7 -7 -7 -7 -7 -7 -7 -7 -7 -7 -7 -6 -6 -6 -5 -5 -5 -5 -4 -4 -4 -4 -4 -4 -4 -4 -4 -4 -4 -4 -4 -4 -4 -4 -4 -4 -4 -4 -5 -5 -4 -4 -4 -4 -3 -3 -3 -3 -3 -3
Height
750 751 751 751 751 751 751 752 752 753 753 754 755 756 757 757 758 758 759 759 760 760 761 762 763 764 764 765 766 766 767 768 769 769 770 771 771 772 773 773 773 774 774 774 774 774 774 775 775 775 775 775 775 775 775 775 775 775 774 774 774 774 773 773 773 773 772 772 772 771 771 771 771 770 770 770 770 769 769 769 769 768 768 768 768 768
749 750 750 751 751 751 751 752 752 752 753 753 754 754 755 756 757 757 758 758 759 759 760 761 762 763 763 764 765 765 766 767 768 769 769 770 771 772 772 773 773 773 773 773 774 774 774 774 775 775 775 775 775 775 774 774 774 774 774 773 773 773 773 773 772 772 771 771 771 770 770 770 770 769 769 769 769 769 768 768 768 768 767 767 767 767
748 748 749 750 750 751 751 751 752 752 752 753 753 753 754 754 755 755 756 757 758 758 759 759 760 761 762 763 764 765 765 766 767 768 768 769 770 771 771 772 772 773 773 773 773 773 774 774 774 774 774 774 774 774 774 773 773 773 773 773 773 772 772 772 771 771 770 770 770 769 769 769 768 768 768 768 768 768 767 767 767 767 766 766 766 765
747 747 748 749 750 750 751 751 751 752 752 752 753 753 753 753 753 754 755 756 757 757 758 758 759 760 761 762 763 764 765 766 766 767 768 768 769 769 770 771 771 772 772 772 773 773 773 773 773 774 774 773 773 773 773 773 773 773 772 772 772 772 771 771 771 770 770 769 769 768 768 768 768 767 767 767 767 766 766 766 766 765 765 765 764 764
745 745 746 748 748 749 750 750 751 751 752 752 752 752 753 753 753 753 754 755 755 756 757 758 758 759 760 761 762 763 764 765 765 766 766 767 768 768 769 769 770 771 771 771 772 772 772 773 773 773 773 773 773 772 772 772 772 772 772 772 771 771 771 770 770 769 769 768 768 768 767 767 767 766 766 766 765 765 765 764 764 764 764 763 763 763
743 744 745 746 747 748 748 749 749 750 750 751 751 751 752 752 752 752 753 753 754 755 757 758 758 759 759 760 761 762 763 764 765 765 766 766 767 767 767 768 769 769 770 770 771 771 771 772 772 772 772 772 772 772 771 771 771 771 771 771 771 771 770 770 769 769 768 768 767 767 767 766 766 765 765 765 764 764 764 763 763 763 763 762 762 762
742 743 744 744 745 746 747 747 748 749 749 749 750 750 751 751 751 751 752 753 753 754 756 757 758 758 758 759 760 761 762 763 764 764 765 765 765 766 766 767 768 768 769 769 770 770 771 771 771 771 771 771 771 771 771 771 771 771 771 770 770 770 769 769 768 768 768 767 767 767 766 766 766 765 765 764 764 763 763 763 762 762 761 761 760 760
741 742 743 743 744 744 745 746 747 747 748 748 749 749 749 750 750 751 752 752 753 754 755 756 757 758 758 758 759 760 761 762 763 763 764 764 764 765 765 765 766 767 768 768 769 769 770 770 770 770 770 770 770 770 770 770 770 770 770 770 769 769 769 768 768 768 767 767 767 766 766 766 765 765 765 764 764 763 763 762 762 761 761 760 760 759
741 741 742 742 742 743 743 744 745 746 747 747 748 748 748 749 750 750 751 752 752 753 754 755 756 756 757 757 758 758 759 760 761 762 763 763 763 764 764 764 765 766 766 767 768 768 768 768 769 769 769 769 769 769 769 769 769 769 769 769 768 768 768 768 767 767 767 766 766 766 766 766 765 765 765 764 764 763 763 762 761 761 760 759 759 758
740 741 741 741 742 742 743 743 744 745 745 746 746 747 747 748 748 749 750 750 751 752 753 754 755 755 755 756 756 757 758 759 760 761 762 762 763 763 763 763 763 764 765 766 766 767 767 767 767 768 768 768 768 768 768 768 768 768 768 768 768 767 767 767 767 766 766 766 766 766 765 765 765 765 764 764 763 763 762 761 761 760 759 758 758 757
741 741 741 741 741 741 742 743 743 744 744 745 746 746 746 747 748 748 748 749 750 751 753 753 754 754 754 755 755 756 757 758 758 759 760 761 762 762 762 762 762 762 763 764 765 765 766 766 766 766 766 767 767 767 767 767 767 767 767 766 766 766 766 766 766 765 765 765 765 765 765 764 764 764 763 763 762 761 761 760 759 758 757 757 756 755
741 741 741 740 740 741 742 742 743 743 743 744 745 745 746 746 746 747 747 748 748 750 751 752 753 753 753 753 754 754 755 756 757 758 759 760 761 761 761 761 761 761 761 762 763 764 765 765 765 765 766 766 766 766 766 766 766 765 765 765 765 765 765 764 764 764 764 764 764 764 764 763 763 763 762 761 761 760 759 758 757 756 755 755 754 753
741 741 741 740 741 741 742 742 742 742 743 743 744 744 745 745 746 746 746 747 748 749 750 751 752 752 753 753 753 753 754 755 756 757 758 758 760 760 761 760 760 760 760 761 762 763 763 764 764 764 765 765 765 765 765 765 764 764 764 764 764 763 763 763 763 763 763 763 763 763 763 762 762 761 760 759 759 758 757 756 755 754 754 753 753 752
741 741 741 741 742 742 743 742 742 743 743 743 744 744 745 745 745 745 745 746 747 748 750 751 751 752 752 752 752 752 753 754 755 756 757 758 759 759 760 759 759 759 759 759 760 761 762 763 763 763 764 764 764 764 763 763 763 763 763 763 763 763 763 762 762 762 762 762 762 761 761 760 760 759 758 758 757 756 755 754 754 753 753 752 752 751
741 741 741 742 742 743 743 743 743 743 743 744 744 744 745 745 745 744 744 745 746 748 750 751 751 751 751 751 751 752 752 753 754 755 756 757 758 758 759 758 758 758 758 758 759 760 761 762 762 763 763 763 763 762 762 762 762 762 762 762 762 762 761 761 761 761 761 761 760 760 759 759 758 758 757 756 755 754 754 753 752 752 752 751 751 751
741 741 742 742 743 743 743 743 743 744 744 744 744 744 744 744 744 744 744 744 746 748 750 751 750 750 750 751 751 751 752 753 753 755 756 757 757 758 758 758 757 757 757 757 758 759 760 761 761 761 761 761 761 761 761 762 762 762 762 761 761 761 760 760 760 760 760 759 759 758 758 758 757 756 755 754 754 753 753 752 752 751 751 750 750 750
741 742 742 743 743 744 744 743 744 744 744 744 744 744 744 744 744 744 744 745 747 749 750 750 749 749 749 750 751 751 752 753 753 754 755 756 756 757 757 757 756 756 756 756 757 758 759 759 760 760 760 760 761 761 761 761 761 761 761 761 760 760 760 760 759 759 758 758 758 757 757 756 755 755 754 753 753 752 752 751 751 751 750 750 749 749
741 742 742 743 743 744 744 744 744 744 744 744 744 744 744 745 745 745 745 746 748 749 749 749 748 748 748 749 750 751 752 752 753 754 755 755 755 756 756 756 755 755 755 755 756 757 758 758 759 759 759 760 760 761 761 761 761 760 760 760 760 760 759 759 758 758 758 757 757 756 756 755 754 753 753 753 752 752 751 751 750 750 749 749 748 748
742 743 743 743 744 744 745 745 745 745 745 745 745 745 745 746 746 746 746 747 748 748 748 748 748 748 748 749 750 751 751 752 753 754 754 754 754 755 755 754 753 753 754 754 755 756 757 757 758 758 759 759 760 760 760 760 760 760 760 759 759 759 758 758 757 757 756 756 756 755 754 754 753 753 752 752 751 751 750 750 749 749 748 748 747 747
743 743 744 744 744 745 745 745 745 745 745 746 746 746 746 746 747 747 748 748 748 748 748 747 747 748 748 748 749 750 751 752 753 754 754 754 754 754 753 753 752 752 753 754 755 755 756 756 757 758 758 759 759 759 759 759 759 759 759 758 758 758 757 757 756 756 756 756 755 754 753 753 752 752 751 751 750 750 749 749 748 748 747 746 746 745
743 743 744 745 745 745 746 746 746 746 746 746 746 746 747 747 747 748 748 748 748 748 747 747 747 747 747 748 749 750 752 753 753 754 754 754 753 753 752 751 750 751 752 753 754 755 755 755 756 757 757 758 758 758 758 758 758 758 758 757 757 757 756 756 756 756 755 754 754 753 753 752 751 751 750 750 749 748 748 747 747 746 745 745 744 743
743 744 744 745 745 746 746 746 746 746 746 746 747 747 747 747 748 748 748 748 748 747 747 746 746 747 748 748 749 751 752 753 753 754 754 753 752 751 750 749 749 750 752 753 753 754 754 755 755 756 756 757 757 757 757 757 757 757 757 756 756 756 756 755 755 754 754 753 753 752 751 751 750 750 749 748 748 747 747 746 745 744 743 743 743 742
743 744 745 745 745 746 746 746 746 746 746 746 746 747 747 747 747 747 747 747 747 747 747 747 747 748 748 749 750 751 752 752 752 753 752 751 749 748 748 748 749 750 752 753 753 753 753 754 754 755 755 755 756 756 756 756 756 756 756 755 755 755 755 754 753 753 753 752 751 751 750 750 749 748 748 747 746 746 745 744 743 742 742 741 741 740
744 744 745 745 745 746 746 746 746 746 746 746 746 746 746 747 747 747 747 747 747 747 747 747 748 748 749 750 750 751 751 751 751 751 750 749 748 747 747 748 749 750 751 752 752 752 753 753 753 753 754 754 754 755 755 755 755 755 755 754 754 753 753 753 752 752 751 750 750 749 749 748 748 747 746 745 744 744 743 742 741 741 740 740 739 739
744 745 745 745 746 746 746 746 746 746 746 746 746 746 746 746 746 746 746 746 747 747 747 748 748 748 749 749 749 749 750 749 749 749 749 747 747 746 747 748 749 750 751 751 751 751 751 752 752 753 753 753 753 753 753 753 753 753 753 753 752 752 751 751 750 750 749 749 748 748 747 747 746 745 744 743 743 742 741 741 740 739 739 738 738 737
745 745 745 746 746 746 746 746 746 746 746 746 746 746 745 745 746 746 746 746 747 747 747 748 748 748 748 748 748 748 748 748 748 748 747 746 746 746 747 748 749 749 750 750 750 750 750 750 751 751 751 752 752 752 752 752 752 752 751 751 750 750 750 749 749 748 748 747 747 746 745 745 744 743 743 742 742 741 740 739 738 738 737 737 736 735
745 745 745 746 746 746 746 746 746 746 746 746 746 745 745 745 745 745 746 746 746 746 747 747 747 747 747 747 747 747 747 747 747 747 746 745 745 746 747 748 748 748 748 748 748 749 749 749 749 750 750 750 750 751 751 750 750 750 749 749 749 748 748 748 747 747 746 746 745 744 744 743 743 742 741 741 740 739 739 738 737 737 736 735 734 734
745 745 745 745 745 745 745 745 745 745 746 745 745 745 744 744 745 745 745 745 745 746 746 746 746 746 746 746 746 747 747 746 746 746 745 744 745 746 747 747 748 748 747 747 747 748 748 748 748 748 749 749 749 749 749 749 748 748 748 748 747 747 746 746 745 745 744 744 743 743 742 742 741 741 740 739 739 738 738 737 736 735 734 733 733 732
744 745 745 745 745 745 745 745 745 745 745 745 744 744 744 744 744 744 745 745 745 745 745 746 746 746 746 746 746 746 746 746 745 745 744 744 744 746 747 747 747 747 747 747 746 746 746 747 747 747 748 748 748 748 747 747 747 746 746 746 745 745 745 744 744 743 743 743 742 741 741 740 740 739 738 738 738 737 736 736 735 734 733 732 732 731
744 745 745 745 745 745 744 745 745 745 745 744 744 744 744 744 744 744 745 745 745 745 745 746 746 746 746 745 745 745 745 745 745 744 744 744 745 746 746 747 747 747 747 747 747 746 745 745 746 746 746 746 746 746 746 745 745 745 744 744 744 744 743 743 743 742 741 741 740 740 739 739 738 738 737 737 736 736 735 735 734 733 732 731 730 730
745 745 745 745 744 744 744 744 744 744 744 744 744 744 744 744 744 745 745 745 745 745 745 746 746 746 745 745 744 745 745 745 745 744 744 744 745 746 746 746 747 747 747 748 748 747 746 745 744 744 745 745 745 744 744 744 744 744 743 743 743 743 742 742 741 741 740 739 739 738 738 738 737 737 736 735 735 735 734 734 733 733 731 730 729 728
745 745 745 745 744 744 744 744 744 744 744 744 745 745 745 745 745 745 745 745 745 745 746 746 746 746 745 745 744 744 745 745 745 744 744 745 745 745 746 746 746 747 747 748 748 748 748 745 743 743 743 744 744 743 743 743 743 743 743 742 742 741 741 740 740 739 738 738 738 737 737 736 736 735 734 734 734 733 733 733 732 732 731 730 728 728
745 745 745 745 744 744 744 744 744 744 745 745 745 745 745 745 745 745 745 745 745 745 746 746 745 745 745 744 744 744 744 745 745 744 744 745 745 745 745 745 745 746 746 746 747 747 747 746 744 743 743 743 743 743 742 742 742 742 742 741 740 740 739 739 738 738 737 737 736 736 735 734 734 733 733 733 732 732 731 731 731 730 730 729 728 727
745 745 745 745 745 744 744 744 745 745 745 745 745 745 745 745 745 745 745 745 745 745 745 745 745 745 744 744 743 743 744 744 744 744 744 744 744 744 744 744 745 745 745 745 745 745 745 745 744 743 742 741 741 741 741 741 741 741 740 740 739 739 738 738 738 737 736 736 735 734 733 733 733 732 731 731 730 730 730 729 729 729 729 728 727 726
745 745 745 745 745 745 745 745 745 745 745 745 745 745 745 745 745 745 745 745 745 745 744 744 744 744 744 744 743 743 743 743 743 744 744 744 744 744 744 744 744 744 744 744 744 744 744 743 743 743 742 741 740 739 740 740 740 739 739 739 739 738 738 737 737 736 735 735 734 733 733 732 731 731 730 729 729 728 728 728 727 727 727 727 726 726
745 745 745 745 745 745 745 745 745 745 745 745 745 745 744 744 744 744 744 744 744 744 744 744 744 744 743 743 743 743 743 743 743 743 743 743 743 743 743 743 743 744 744 743 743 743 743 743 742 742 742 741 739 738 738 739 739 738 738 738 738 738 737 737 736 736 735 734 733 733 732 731 730 730 729 728 728 727 727 726 726 725 725 725 725 725
745 746 746 746 745 745 745 745 745 745 745 745 744 744 744 744 744 744 743 743 743 743 743 743 743 743 743 743 743 743 743 742 742 743 743 743 743 743 743 743 743 743 743 743 743 743 743 742 742 741 741 740 740 739 738 738 738 738 737 737 737 736 736 736 736 735 734 733 733 732 731 730 730 729 728 727 727 726 725 724 724 723 723 723 723 723
746 746 746 746 746 746 746 745 745 745 745 745 745 744 744 744 744 743 743 743 743 743 743 743 742 742 742 742 742 742 742 742 742 742 742 742 742 742 743 742 742 743 743 743 743 743 742 742 742 741 740 740 739 739 738 738 737 737 736 736 736 736 735 735 735 734 734 733 732 731 730 730 729 728 727 726 725 724 723 723 722 722 721 721 720 720
746 746 746 746 746 746 746 746 746 745 745 745 745 745 744 744 744 743 743 743 743 742 742 742 742 742 741 741 741 741 741 741 741 741 741 741 741 742 742 742 742 742 742 742 742 742 742 742 741 741 740 739 739 738 738 738 737 737 736 735 735 734 734 734 734 733 733 732 731 730 729 729 728 727 726 725 725 724 723 722 721 720 720 719 718 718
747 747 747 747 747 746 746 746 746 746 745 745 745 744 744 744 743 743 743 743 742 742 742 741 741 741 741 741 740 740 740 740 740 740 740 741 741 741 741 741 741 741 741 741 741 741 741 741 741 740 740 740 739 738 738 738 737 737 736 735 734 733 733 733 733 733 732 732 731 730 728 728 727 726 726 725 724 723 722 721 720 720 719 719 718 717
747 747 747 747 747 747 746 746 746 745 745 745 744 744 744 743 743 743 743 742 742 741 741 741 740 740 740 740 740 740 739 739 739 740 740 740 740 740 740 740 740 740 740 740 740 740 740 740 740 740 739 739 739 738 738 737 737 737 736 735 734 733 733 733 733 732 731 731 730 729 728 727 726 725 724 724 723 722 722 721 720 719 719 718 718 718
747 747 747 747 747 747 746 746 745 745 745 744 744 744 743 743 743 742 742 742 741 741 741 740 740 739 739 739 739 739 739 739 739 739 739 739 739 739 739 739 739 739 739 739 739 739 739 739 739 739 739 738 738 738 737 736 736 736 736 735 734 733 732 732 732 731 731 730 729 728 728 727 725 724 723 723 722 721 720 720 719 719 718 718 718 717
747 747 747 747 747 746 746 745 745 745 744 744 744 743 743 743 743 742 742 741 741 741 740 740 739 739 739 738 738 738 738 738 738 738 738 738 738 739 739 739 739 739 739 738 738 738 738 738 738 738 738 738 738 737 736 735 735 735 735 735 734 733 732 730 730 730 730 729 728 727 727 726 725 724 723 722 721 720 719 719 718 718 718 717 716 716
747 747 747 747 746 746 745 745 745 744 744 744 743 743 743 743 742 742 742 741 741 741 740 740 739 739 739 738 738 738 738 738 738 738 738 738 738 738 738 738 738 738 738 738 738 738 738 738 737 737 737 737 737 736 736 735 735 735 735 734 734 734 733 731 730 729 729 728 728 727 726 725 724 723 722 721 720 719 718 718 717 716 716 716 715 715
747 747 747 746 746 746 745 745 744 744 744 744 743 743 743 743 743 742 742 742 741 741 741 740 739 739 739 738 738 738 738 738 738 738 738 738 738 738 738 738 738 738 738 737 737 737 737 737 736 736 736 736 736 735 735 735 734 734 734 734 733 733 732 731 730 730 729 728 727 726 725 724 723 722 721 720 719 718 718 717 716 715 714 714 714 713
747 747 746 746 746 746 745 745 745 744 744 744 744 743 743 743 743 743 742 742 742 742 741 741 740 740 739 739 738 738 738 738 738 737 737 737 737 737 737 737 737 737 737 737 736 736 736 736 736 735 735 735 734 734 734 734 734 733 733 733 733 732 731 730 730 729 728 727 726 725 724 724 723 722 721 719 718 717 717 716 715 714 713 713 713 712
746 746 746 746 746 745 745 745 745 744 744 744 744 744 743 743 743 743 743 742 742 742 741 741 741 740 740 739 739 738 738 738 738 737 737 737 737 737 737 736 736 736 736 736 735 735 735 735 735 735 734 734 733 733 733 733 733 733 732 732 731 731 730 729 729 728 728 727 726 725 724 724 723 722 720 719 718 717 716 715 714 713 713 712 712 711
746 746 746 746 746 745 745 745 744 744 744 744 744 744 743 743 743 743 743 742 742 742 742 741 741 741 740 740 739 739 738 738 738 737 737 737 737 736 736 736 736 735 735 735 735 734 734 734 734 733 733 733 733 732 732 732 732 732 731 731 730 730 729 728 728 728 727 727 726 725 725 724 723 722 720 719 717 716 715 714 713 712 712 711 711 710
746 746 746 746 745 745 745 745 744 744 744 744 744 743 743 743 743 743 743 742 742 742 742 741 741 741 740 740 739 739 739 738 738 737 737 737 736 736 736 735 735 735 734 734 733 733 733 733 733 733 733 732 732 731 731 731 731 731 730 730 729 729 728 728 728 727 727 726 726 725 724 723 723 722 721 719 717 715 714 713 712 711 710 710 709 708
746 746 746 746 745 745 745 744 744 744 744 743 743 743 743 743 743 743 743 742 742 742 742 741 741 741 740 740 739 739 738 738 738 737 737 737 736 736 735 735 734 734 733 733 733 732 732 731 731 731 731 732 731 731 731 730 730 730 729 729 729 729 728 728 727 727 726 726 725 724 723 722 722 721 720 719 717 715 713 712 711 710 709 708 708 707
746 746 746 745 745 745 744 744 744 744 743 743 743 743 743 743 743 743 742 742 742 742 741 741 741 740 740 739 739 738 738 738 737 737 737 736 736 736 735 735 734 734 733 733 732 732 732 731 730 730 730 730 731 731 730 730 729 729 729 728 728 728 728 727 726 726 725 725 724 723 723 722 721 720 720 718 717 714 712 711 709 709 708 708 707 705
Wind_Speed
16 13 10 9 13 19 21 21 21 20 19 18 18 17 17 16 15 14 13 13 13 13 13 12 11 10 9 9 8 8 7 5 4 4 3 2 1 2 2 4 5 6 7 7 7 6 5 5 5 5 6 7 8 9 9 10 10 11 11 11 11 11 11 11 11 11 12 12 12 13 13 13 13 13 13 14 14 14 15 15 15 16 16 17 17 18
17 14 12 10 11 14 17 18 19 19 19 18 18 18 17 17 16 16 15 14 14 14 14 14 13 12 11 10 9 8 7 6 5 5 4 3 2 2 3 4 6 7 7 7 6 5 4 4 5 5 6 7 8 9 10 10 11 11 11 11 11 11 11 11 12 12 13 13 13 14 14 14 14 14 14 15 15 15 15 16 16 17 17 17 17 18
17 15 13 11 11 12 14 16 17 17 17 17 17 17 18 18 18 17 17 16 16 15 15 15 14 13 12 11 9 8 7 6 5 5 5 4 3 2 3 4 6 6 6 6 5 5 4 5 6 7 8 8 9 10 10 11 10 10 10 9 9 10 10 11 12 13 13 14 14 15 15 15 15 15 15 15 15 16 16 16 17 17 18 18 18 18
18 16 14 13 12 13 13 14 15 16 16 16 17 17 18 18 19 18 18 18 17 17 16 16 15 14 13 11 10 9 8 7 6 6 5 4 3 3 4 4 5 5 5 5 5 5 6 7 7 8 9 9 10 10 10 10 9 8 7 7 8 9 10 12 13 14 14 15 15 15 15 15 15 16 16 16 16 16 17 17 17 18 18 18 18 19
18 17 16 15 13 13 13 13 14 15 16 17 18 18 18 19 19 19 19 19 18 17 16 15 15 14 13 11 10 9 8 8 7 6 6 5 4 4 3 4 4 4 4 5 6 6 7 8 9 10 10 10 10 9 9 8 6 6 6 7 8 10 11 13 14 15 15 15 16 16 16 16 16 16 17 17 17 17 18 18 18 18 18 19 19 19
18 19 18 16 15 13 12 12 12 12 14 15 17 17 18 18 19 19 20 20 18 17 15 15 14 13 12 11 10 9 9 8 7 6 6 5 5 4 4 4 4 4 4 5 6 7 8 9 10 10 10 10 9 8 7 6 5 5 6 7 9 11 12 13 14 15 15 15 15 16 16 16 16 17 17 18 18 18 19 19 19 19 19 19 19 20
17 18 18 16 15 13 12 11 10 9 10 12 14 16 17 18 18 19 19 18 17 16 15 14 13 12 12 11 10 10 9 9 8 8 7 7 7 6 6 5 5 5 5 5 6 7 9 10 11 11 11 10 9 7 6 5 5 6 7 8 10 11 12 13 14 14 14 15 15 15 15 16 16 17 18 18 19 19 19 19 19 19 19 20 20 20
13 15 16 15 14 13 11 10 9 7 7 8 11 14 16 17 17 17 18 17 16 15 14 14 13 12 12 12 11 11 10 10 10 10 9 9 8 8 7 6 6 5 5 6 6 7 8 9 10 11 11 10 9 8 7 6 6 7 8 9 10 11 12 12 13 13 14 14 14 14 15 16 16 17 18 18 18 19 19 19 19 19 19 20 20 20
7 9 12 12 12 11 11 10 9 8 7 7 9 12 14 16 16 16 17 16 15 15 14 15 14 14 13 12 11 11 11 11 10 10 9 8 8 7 7 6 5 5 5 5 6 6 7 7 8 8 8 7 7 7 7 7 8 9 10 10 11 12 12 12 13 13 13 13 13 14 15 15 16 17 17 18 18 18 18 18 18 19 19 19 20 20
3 5 7 9 10 10 10 9 9 8 8 7 8 10 13 16 17 16 15 15 15 16 16 16 16 15 13 12 12 12 12 11 10 9 8 7 7 6 6 6 5 4 4 5 6 6 6 6 5 4 4 3 4 5 5 6 8 9 10 11 12 12 13 13 13 13 13 13 13 14 15 15 16 17 17 17 18 18 18 18 18 18 19 19 20 20
2 2 2 3 5 7 7 7 7 7 6 6 6 8 11 14 16 17 17 16 16 16 16 16 15 14 13 13 12 12 12 11 10 9 7 6 6 6 6 6 5 5 4 5 5 6 5 5 4 3 2 2 2 3 5 6 8 9 11 11 12 13 13 13 13 13 13 13 14 14 15 15 16 16 16 17 17 18 18 18 19 19 19 20 20 21
3 2 2 2 2 1 2 3 4 4 4 4 5 5 6 9 12 15 17 17 17 17 16 15 14 13 12 12 11 11 11 10 9 7 6 6 6 6 6 6 6 6 5 5 5 5 5 4 3 3 3 3 4 6 9 10 12 12 13 14 14 14 14 14 14 14 14 14 14 14 15 15 15 15 16 17 18 18 18 19 19 19 20 20 20 21
4 2 2 1 2 3 5 5 4 3 2 1 0 1 2 4 6 9 12 14 15 15 14 14 13 11 10 10 9 8 8 8 7 6 5 5 5 5 5 6 6 6 6 6 6 6 5 5 5 6 6 8 10 12 14 14 15 15 15 16 16 16 16 16 15 15 15 14 14 14 14 14 14 15 16 17 18 18 19 19 19 20 20 20 20 21
5 5 5 6 6 6 8 9 9 8 7 6 4 1 1 3 5 7 8 9 10 11 11 12 11 10 8 6 6 6 5 5 5 5 5 5 5 5 5 5 5 5 6 6 6 6 6 7 8 9 11 12 14 15 15 15 15 14 14 15 15 15 16 16 15 15 14 14 14 13 13 14 14 15 16 17 18 18 19 19 19 20 20 20 20 21
6 6 6 6 6 6 7 8 9 9 9 8 7 4 2 3 5 6 6 6 7 8 9 10 10 10 9 8 7 6 5 5 5 5 5 4 4 4 4 4 4 4 5 5 6 7 7 8 10 11 13 14 14 14 13 13 12 12 12 13 13 14 14 14 14 14 13 13 12 12 13 13 14 15 16 16 17 17 18 19 19 20 20 20 20 20
6 6 5 5 5 6 7 8 8 8 8 9 9 8 7 6 5 5 7 8 8 8 9 9 9 8 7 7 7 6 5 4 3 4 5 4 4 4 4 4 4 4 5 6 7 8 9 10 12 12 12 12 11 10 10 10 10 11 11 12 12 12 12 12 12 12 11 11 10 11 12 13 13 14 15 15 16 17 18 18 19 19 19 19 19 20
6 6 5 5 5 6 7 8 8 8 8 9 9 9 9 8 7 7 7 8 8 7 7 7 5 4 4 5 6 5 4 2 1 3 5 5 5 4 5 5 5 5 6 7 8 9 10 10 10 10 8 8 7 7 8 9 10 10 11 11 11 11 11 11 11 11 10 10 10 11 12 12 13 14 15 16 17 18 18 19 19 19 19 19 19 19
6 6 5 5 5 6 7 8 8 8 8 9 9 8 8 8 7 7 7 8 7 6 4 4 3 3 4 5 4 4 3 2 1 3 6 7 7 6 6 6 6 6 7 7 8 9 8 8 6 5 5 5 5 6 8 9 9 10 10 10 10 10 10 10 10 10 11 11 12 13 13 13 14 15 16 17 17 18 18 18 18 18 18 18 18 18
7 7 6 5 5 6 7 7 7 7 8 8 8 8 8 8 7 7 8 7 7 6 5 4 3 3 3 4 4 3 2 2 3 5 7 8 8 7 7 7 7 7 7 7 7 6 4 3 2 2 3 4 5 6 7 8 9 9 10 10 10 10 10 10 10 11 12 12 13 13 13 13 13 14 14 14 15 15 15 15 15 15 15 16 16 17
7 8 7 6 6 6 6 6 6 6 7 6 6 6 7 7 7 7 7 7 7 6 6 6 6 4 2 1 1 1 2 3 6 7 7 8 8 8 7 7 6 7 6 5 3 2 0 0 1 2 3 4 5 6 7 8 9 9 10 10 10 10 11 11 11 11 11 12 12 13 13 13 13 13 13 13 13 12 12 12 13 13 14 15 16 17
8 7 7 6 6 5 5 4 4 4 4 3 3 4 5 5 5 6 5 5 5 4 4 5 5 4 3 3 4 3 3 6 8 8 6 6 7 7 6 5 5 4 3 1 0 1 2 2 3 4 4 5 6 7 8 9 10 11 11 11 11 11 11 11 11 12 12 13 14 15 15 15 15 14 14 13 13 13 13 13 13 14 15 16 17 18
7 7 5 4 4 4 3 3 3 3 2 2 2 2 3 3 4 4 4 4 4 5 5 5 4 4 4 6 7 7 7 7 8 7 5 5 5 5 3 3 3 2 1 1 1 2 3 4 4 5 6 7 8 9 10 11 12 12 12 12 12 12 12 12 13 14 15 16 17 17 17 16 15 15 14 14 14 14 14 14 15 15 16 18 19 20
5 4 3 3 3 3 3 4 5 5 4 4 3 2 2 1 2 2 3 4 4 5 5 5 5 6 7 9 10 9 8 7 7 7 5 5 3 2 1 1 0 1 2 2 3 3 4 5 6 7 8 9 9 10 10 11 12 12 12 12 12 12 13 14 15 17 18 18 19 18 17 16 15 14 14 14 14 15 16 16 16 17 18 19 21 22
3 2 2 3 3 3 4 5 6 6 7 6 6 5 5 4 4 4 4 5 5 6 6 7 7 7 8 8 8 7 5 4 4 4 5 4 2 1 2 2 2 2 3 3 4 5 6 7 8 8 9 9 9 9 10 10 11 11 11 11 12 13 15 16 17 18 19 19 19 19 18 17 16 15 14 14 14 15 15 16 16 17 18 20 21 22
4 4 4 4 4 4 5 5 5 6 6 7 7 7 7 7 6 7 7 6 6 5 5 5 5 5 4 4 3 2 1 1 2 1 2 2 1 3 4 2 1 2 3 5 6 7 7 8 8 8 8 8 8 8 9 10 10 11 12 12 14 15 16 17 18 19 19 19 19 19 19 18 17 16 15 15 15 15 15 16 16 16 18 19 20 21
6 5 4 4 4 3 3 4 4 4 4 5 6 6 6 6 6 6 6 5 4 3 2 2 2 2 2 2 2 0 2 2 2 3 2 2 2 3 4 3 3 4 4 4 5 5 5 6 6 6 6 7 7 8 8 9 10 11 12 13 14 16 17 18 19 20 21 20 20 20 19 19 18 18 17 17 17 17 17 17 17 17 17 18 19 20
6 6 5 5 4 4 4 3 3 3 3 3 4 4 5 5 4 4 3 2 2 2 1 1 2 2 3 3 3 1 2 3 3 3 3 2 3 4 4 5 5 4 4 4 3 3 4 4 5 5 5 6 7 7 8 9 10 11 13 14 15 17 18 20 21 22 22 22 21 20 20 20 20 19 19 19 19 19 19 19 19 19 18 19 19 20
4 4 4 5 5 5 4 4 4 4 5 4 3 0 2 3 2 1 1 0 1 2 2 2 2 2 3 3 3 1 3 4 5 5 3 2 3 4 6 6 6 6 6 6 6 5 5 5 5 5 5 6 7 7 8 9 11 12 14 15 17 19 20 22 23 23 23 22 22 21 21 21 21 21 21 20 20 20 20 21 21 21 21 20 21 21
2 2 2 3 3 3 3 3 5 6 7 7 7 6 5 6 6 7 5 3 3 3 4 3 2 2 2 3 3 2 4 6 7 6 4 2 3 4 6 7 8 8 8 8 7 6 6 6 6 6 5 6 7 8 9 11 13 15 16 18 20 21 23 24 24 24 23 23 22 22 21 21 21 22 22 22 21 21 21 21 22 22 22 22 23 23
3 2 2 2 3 3 3 4 6 7 8 9 9 9 9 9 10 10 8 6 5 6 7 6 5 3 1 1 1 2 5 8 9 7 5 4 4 6 7 8 9 10 9 8 6 4 5 6 6 5 5 6 8 10 12 14 16 18 20 21 22 23 24 24 24 23 23 22 22 22 22 22 22 22 22 22 22 22 21 22 22 23 23 24 24 24
4 4 4 4 4 5 5 5 6 6 7 8 9 9 9 10 10 9 8 7 7 7 7 7 7 6 4 3 1 1 3 8 10 8 6 5 5 6 8 9 9 10 10 7 4 2 3 4 4 4 6 9 12 14 16 17 19 20 21 22 23 23 22 22 21 22 22 22 22 22 22 22 22 23 23 22 22 22 22 22 22 23 24 25 25 25
5 5 6 6 6 6 6 6 6 6 5 6 7 8 8 8 8 8 8 8 7 7 7 7 6 6 5 4 2 1 2 7 9 9 8 6 6 7 8 9 9 9 9 7 4 1 1 3 5 8 12 14 16 17 18 19 19 20 20 20 20 20 20 20 20 21 22 22 22 23 23 23 23 23 23 23 23 22 22 22 23 23 24 24 25 25
5 5 6 6 7 7 7 7 6 6 5 5 6 7 7 7 7 7 7 7 6 6 6 6 6 5 4 4 3 2 3 5 8 9 9 8 7 7 9 9 9 9 9 8 6 4 4 6 9 12 15 16 16 17 17 18 18 17 17 17 17 18 18 19 20 21 22 23 23 23 23 23 23 23 23 23 23 23 23 23 23 22 23 23 24 25
5 6 6 7 7 7 7 7 6 6 6 6 6 7 7 8 8 8 7 7 6 5 4 4 5 5 5 5 5 5 4 5 7 9 9 9 8 8 9 9 9 9 9 8 8 7 6 8 10 11 13 15 16 16 16 16 16 15 15 15 16 17 18 19 21 22 22 23 23 23 24 24 24 24 24 24 24 23 23 23 23 22 22 22 22 23
6 6 7 7 7 7 6 6 6 6 6 7 8 8 9 9 9 9 8 7 5 4 3 3 3 4 4 6 6 7 7 8 9 9 9 9 8 8 9 8 7 8 9 9 8 8 7 9 10 11 12 13 14 15 14 14 14 14 14 14 15 17 18 19 20 21 22 23 23 23 24 24 25 25 25 25 25 25 24 24 24 23 22 22 22 22
7 7 7 7 7 7 7 7 7 8 8 9 9 10 10 10 10 9 8 6 5 3 2 2 2 2 2 4 5 7 9 10 9 8 8 7 8 8 7 7 7 7 8 8 8 8 8 9 10 11 11 11 11 12 13 13 13 14 14 15 16 17 18 19 19 20 21 22 23 24 24 24 25 25 25 26 26 26 26 25 25 24 24 23 23 22
7 7 7 7 7 7 8 8 9 10 10 11 11 11 11 10 9 8 7 6 4 3 2 2 2 1 1 2 4 6 7 8 7 6 6 6 6 6 6 6 6 7 7 7 7 7 8 9 10 11 10 9 9 10 12 14 14 15 15 16 17 18 19 18 18 18 20 21 22 23 24 24 25 25 26 26 27 27 27 26 26 26 25 25 24 22
7 7 8 7 7 8 8 9 10 11 11 11 11 11 10 9 8 7 7 6 5 4 3 2 1 1 1 2 3 4 5 6 5 5 4 4 5 5 6 7 7 7 6 7 7 8 8 8 7 7 8 9 10 12 13 14 15 16 16 17 18 18 18 17 17 18 19 20 22 23 23 24 24 25 26 26 27 27 27 27 27 26 26 26 25 23
7 8 8 8 8 8 9 9 10 10 10 10 9 9 8 8 7 7 7 7 6 5 5 4 4 3 3 3 4 4 5 5 5 5 4 4 4 4 5 7 7 7 7 7 8 8 8 8 7 7 8 9 11 13 13 14 15 16 17 18 17 17 16 16 17 18 19 20 21 22 23 24 24 25 26 26 26 26 27 27 27 26 26 26 26 25
7 7 8 8 8 8 8 9 9 9 8 8 8 7 7 7 8 8 8 8 7 7 6 6 5 5 5 4 4 4 4 4 4 4 4 4 4 4 5 6 7 7 8 8 8 8 9 9 9 10 10 10 11 12 13 13 14 15 16 16 16 15 16 16 17 18 18 19 20 22 24 25 25 26 26 26 26 26 26 26 26 26 25 25 25 25
7 7 8 7 7 7 7 7 7 7 7 6 6 7 7 8 9 9 9 9 9 9 9 8 8 7 6 5 5 5 5 4 4 4 4 4 4 5 5 6 6 7 7 8 8 9 9 10 10 11 11 11 12 13 13 13 14 14 14 14 15 16 17 17 17 18 18 19 21 22 24 25 26 26 27 27 26 26 25 25 25 25 24 23 23 22
7 7 7 7 8 8 8 7 6 6 5 5 6 7 8 8 9 10 10 10 10 10 11 11 12 11 11 10 8 7 7 7 6 6 5 5 5 5 5 6 6 7 7 7 8 8 9 9 10 11 11 11 12 12 13 13 13 13 13 14 16 18 18 17 17 17 19 21 23 24 25 25 25 26 26 27 27 26 26 25 25 24 23 23 23 23
6 7 7 8 8 8 8 7 6 6 6 6 6 7 8 8 9 10 10 10 10 11 11 12 12 12 13 12 12 10 9 8 7 7 6 6 5 5 5 6 6 6 7 8 8 8 8 8 9 10 11 11 11 11 12 13 13 13 13 14 16 16 16 16 18 19 21 23 24 25 25 25 25 26 26 27 26 26 26 25 24 24 23 23 24 24
6 7 7 8 8 8 8 8 7 7 7 7 7 7 7 8 8 9 10 10 10 10 11 12 12 12 12 12 12 12 12 10 9 8 7 7 7 7 6 6 6 6 7 8 9 9 9 9 9 9 9 10 10 11 12 13 14 14 14 15 15 16 16 17 19 21 23 24 24 24 23 24 25 26 27 26 26 26 25 24 24 24 24 24 24 24
6 7 8 8 9 9 10 10 9 8 7 7 7 8 8 8 8 9 9 9 9 10 11 11 12 12 12 12 12 13 13 12 11 10 9 8 8 7 8 7 7 7 7 8 9 10 10 10 11 11 11 11 12 12 13 14 15 15 15 15 15 16 18 19 20 22 22 23 23 23 23 24 25 25 25 24 23 23 23 23 23 24 24 24 24 24
6 7 8 8 9 9 10 10 10 9 8 8 8 8 8 8 9 9 9 9 9 9 10 10 10 11 11 12 12 13 13 13 12 11 10 10 10 9 9 9 8 8 8 9 9 9 10 11 12 12 12 12 13 13 14 14 15 15 16 16 17 18 19 20 20 21 21 22 22 23 23 23 23 22 21 21 21 21 22 22 22 23 24 24 24 24
7 7 7 8 8 8 9 9 10 10 10 9 9 9 9 9 9 9 9 9 9 9 9 9 9 9 10 11 11 12 12 12 12 11 11 11 11 11 11 11 10 10 10 10 10 10 10 10 11 12 12 12 12 13 14 14 15 15 17 17 17 17 18 18 19 19 19 20 21 21 21 21 20 18 18 19 20 20 21 22 23 24 24 24 24 23
7 7 7 7 7 8 8 9 9 10 10 10 10 9 9 9 9 9 9 9 9 9 8 8 8 9 9 10 10 10 10 11 11 12 12 12 12 12 12 12 12 12 11 11 11 11 11 10 10 10 11 12 12 13 14 14 15 16 17 17 17 17 17 17 17 17 18 18 18 18 18 17 16 16 17 18 19 20 21 22 24 25 25 25 24 24
8 7 7 7 7 8 8 9 9 10 10 10 10 10 9 9 9 9 10 10 10 9 8 8 8 9 9 9 9 9 9 10 11 12 12 12 11 11 12 12 12 12 12 12 12 12 11 10 9 9 9 10 12 14 15 16 16 16 17 17 16 16 15 15 15 15 15 15 15 15 16 17 18 19 19 19 20 21 22 23 24 25 25 26 26 26
7 7 7 7 7 8 8 9 9 10 10 10 10 10 10 9 10 10 11 11 11 10 9 9 9 9 9 10 10 9 9 10 11 11 11 11 11 11 11 12 12 13 13 13 13 12 12 11 10 9 7 7 9 12 14 15 15 14 14 14 13 13 13 13 13 13 14 15 16 18 20 22 23 23 22 21 21 22 23 23 23 23 24 26 27 28
7 6 6 7 7 8 8 9 9 10 10 10 9 9 9 10 11 11 12 12 13 12 11 11 10 9 10 10 10 10 10 10 11 11 11 10 10 10 11 11 12 12 13 13 12 12 11 10 9 9 9 7 6 7 10 11 12 12 12 12 12 13 13 14 14 15 16 18 19 21 23 24 24 23 21 20 21 21 22 22 22 23 23 25 26 28
Wind_Direction
248 253 261 250 219 205 200 198 195 191 189 188 188 188 190 190 190 189 187 183 177 173 169 167 168 170 172 173 170 167 166 170 178 189 201 217 247 295 319 328 331 330 329 324 319 312 308 308 308 309 309 308 307 306 305 305 305 306 309 312 316 319 323 326 327 328 327 327 326 325 323 322 320 317 315 312 309 306 303 300 297 294 292 289 288 286
242 245 246 243 225 208 202 200 197 193 190 189 190 191 192 192 191 190 187 183 178 173 170 169 171 173 174 173 170 166 163 166 174 186 196 204 220 259 299 314 318 320 319 316 311 307 309 314 317 315 310 307 304 302 300 300 300 303 306 311 317 322 327 330 331 331 331 330 329 327 326 325 322 320 318 315 313 311 308 305 303 300 297 295 293 292
237 239 237 235 226 216 209 205 204 203 201 200 200 200 199 197 194 190 185 181 177 175 174 174 175 176 176 175 174 173 171 171 175 182 190 197 213 250 287 302 309 311 311 307 302 299 302 310 314 313 309 305 302 299 297 297 298 302 308 316 323 330 334 336 337 336 335 333 332 331 329 328 326 323 321 319 317 315 313 311 309 307 304 302 300 298
234 236 234 230 226 220 214 211 211 213 215 216 216 215 211 204 196 189 182 178 176 175 176 177 178 179 179 179 180 180 180 180 180 183 189 197 216 248 275 290 298 300 300 296 292 292 298 306 310 310 308 304 302 299 298 298 300 307 317 328 335 340 341 340 339 338 336 335 333 332 331 329 327 325 323 322 320 318 317 316 314 313 311 309 307 304
233 235 235 231 226 221 218 217 217 219 222 224 224 223 217 207 197 187 180 177 175 175 176 178 181 182 183 183 184 184 185 186 188 190 195 202 216 235 254 268 278 283 285 284 285 290 298 306 310 311 309 306 303 300 299 301 308 320 333 341 343 342 341 340 338 336 335 333 332 331 330 329 327 326 324 322 320 319 318 317 316 314 314 312 311 308
230 233 235 233 229 224 220 219 220 222 223 222 221 218 211 202 192 183 177 175 175 176 178 181 183 185 185 185 184 185 187 190 193 195 196 197 202 210 221 233 244 256 267 276 282 291 299 305 310 312 311 308 304 300 300 305 317 330 337 339 339 338 337 335 334 333 331 330 329 329 328 327 326 325 324 323 321 319 318 316 315 314 313 312 311 309
226 228 231 232 230 227 222 218 219 219 217 211 207 204 199 193 186 181 178 177 178 179 183 187 189 187 185 183 181 182 186 191 194 193 192 191 195 201 208 217 227 241 259 274 284 292 300 305 309 312 311 308 302 296 295 302 314 323 326 328 329 329 330 330 330 328 327 326 326 325 325 325 325 325 324 324 322 320 318 316 314 313 311 310 309 308
224 223 225 227 228 227 224 220 220 220 219 211 200 194 191 188 186 185 186 185 185 186 189 193 192 187 182 180 179 181 185 190 193 194 194 196 200 205 209 215 224 240 261 276 286 292 298 303 307 309 309 305 298 291 288 291 300 309 314 317 320 321 323 324 323 323 322 321 321 321 322 323 324 325 325 324 323 322 320 318 315 313 311 309 307 306
234 229 226 225 225 225 225 225 226 230 234 233 217 202 195 192 190 190 192 192 192 192 194 195 192 187 183 183 183 184 187 191 194 195 198 204 210 214 216 219 227 243 260 271 276 281 287 293 298 302 304 302 297 291 287 288 295 302 307 311 314 317 318 319 318 317 316 316 316 317 318 319 321 322 323 324 324 323 321 319 316 314 311 308 306 305
266 254 240 230 226 225 226 230 233 236 239 240 232 218 206 199 195 193 193 193 194 195 196 195 193 191 187 187 187 187 189 191 194 198 205 214 221 225 225 224 226 234 246 254 257 260 263 268 271 276 284 293 292 290 292 295 299 304 308 311 313 315 317 317 315 313 312 311 312 313 314 316 318 319 321 322 323 323 322 320 318 315 312 309 307 305
336 318 273 230 221 222 226 233 238 239 238 236 231 221 210 202 198 194 192 192 193 195 195 195 194 191 186 184 184 187 190 193 198 203 210 220 227 229 227 222 217 215 221 230 236 240 242 242 239 235 233 249 279 296 304 306 307 308 309 311 313 314 316 315 314 312 310 309 309 311 312 313 315 317 319 320 322 322 322 321 320 318 315 312 310 307
25 6 25 71 110 179 222 235 233 230 229 229 226 219 209 202 199 196 193 191 191 192 193 193 191 187 182 181 182 187 192 197 200 203 210 218 223 224 222 218 212 206 204 211 218 225 229 232 234 239 252 276 295 304 308 308 307 306 306 306 307 308 310 311 311 311 309 309 309 310 311 312 314 316 317 319 320 321 322 322 322 321 319 317 314 311
41 17 359 31 64 67 57 61 79 102 125 121 92 273 244 219 203 197 194 193 192 191 190 184 178 174 175 177 178 180 187 192 195 198 202 209 214 216 218 216 210 205 202 206 214 227 240 253 265 277 286 295 302 307 309 309 308 307 305 304 304 305 306 306 307 308 308 308 309 310 311 313 315 316 318 319 320 321 322 323 324 324 323 321 319 316
40 37 47 61 69 66 57 59 62 63 62 62 62 66 224 227 218 207 196 190 189 190 186 176 165 154 145 144 147 153 161 168 175 182 190 198 206 215 221 219 215 209 208 213 223 238 255 272 282 289 294 299 305 310 313 314 314 312 311 309 308 307 306 306 305 305 305 307 309 311 314 317 318 320 320 321 321 322 323 324 325 325 325 324 322 319
47 47 52 59 60 55 52 56 58 60 62 64 72 90 131 185 202 199 184 172 176 183 182 173 159 140 117 109 113 123 132 145 163 175 182 195 209 219 228 230 227 221 221 226 236 248 266 281 291 296 301 305 310 316 319 321 322 322 320 317 315 312 309 307 304 303 303 306 311 316 319 319 320 321 322 322 322 322 322 323 324 324 324 324 322 320
65 62 62 64 62 58 56 60 61 60 60 65 72 78 83 91 117 144 148 150 158 169 173 168 156 139 125 121 117 117 122 141 171 190 198 208 222 234 243 252 249 243 242 243 249 259 274 288 298 304 310 316 320 324 328 331 332 330 327 324 320 316 312 308 305 304 306 310 315 318 319 317 316 317 318 317 317 317 318 320 321 322 322 322 321 319
70 70 73 74 71 66 63 67 68 65 63 66 70 71 70 72 84 107 127 140 150 162 171 170 160 141 136 122 117 116 118 123 190 226 229 234 242 253 262 269 270 266 262 261 267 278 289 299 308 315 322 327 332 335 336 335 333 331 329 326 324 321 316 312 311 313 315 318 319 318 316 314 311 310 308 308 309 310 313 315 317 318 319 319 319 317
61 63 67 70 71 70 67 66 65 64 65 64 68 72 72 74 82 97 112 127 137 146 154 158 150 139 135 123 108 96 100 70 328 278 263 259 259 264 272 275 277 279 280 281 286 293 301 309 318 327 333 335 336 336 334 332 330 328 325 324 324 324 323 322 321 321 319 319 319 320 320 318 314 311 308 307 308 310 312 314 316 317 318 318 318 317
59 59 58 56 62 70 72 68 63 60 60 64 69 72 70 71 77 86 94 104 110 110 106 92 82 88 102 100 89 73 64 15 334 312 291 276 270 270 276 281 287 292 295 296 298 302 309 318 331 334 326 325 327 328 326 322 320 321 323 325 325 324 324 322 319 316 315 315 319 325 330 330 327 323 319 317 316 316 317 318 320 321 322 322 321 320
66 63 60 62 67 72 73 69 67 65 64 67 75 80 76 74 72 71 70 75 80 85 88 74 59 49 49 30 16 21 13 341 327 316 298 283 276 277 285 293 303 309 308 305 306 310 284 199 257 280 292 300 310 315 316 317 318 320 321 322 322 321 318 315 313 315 318 321 328 337 341 341 338 335 332 330 328 326 325 326 327 328 329 329 327 325
75 70 70 78 80 75 72 61 55 58 62 65 76 86 85 79 67 58 52 48 48 54 62 52 39 22 352 317 308 310 320 320 316 308 288 273 270 278 294 309 317 318 317 327 79 137 177 209 238 259 279 288 298 305 310 312 313 314 315 316 316 316 316 316 319 323 326 332 338 342 343 342 341 339 337 334 332 330 329 329 330 332 332 333 332 329
80 74 72 69 70 68 52 26 10 6 10 10 30 56 72 69 57 45 31 19 14 13 13 8 358 341 317 301 294 292 297 301 297 287 267 252 254 269 305 335 342 330 291 161 169 192 212 229 245 262 278 289 296 301 305 309 313 313 312 311 312 316 320 323 326 329 331 335 337 339 340 340 340 339 338 336 334 332 331 330 330 331 332 332 332 331
78 71 64 53 39 23 4 351 342 335 327 321 319 321 319 334 352 354 347 346 346 345 340 331 318 304 295 289 287 288 290 289 285 275 255 240 244 271 339 23 307 228 216 212 221 231 240 252 266 278 286 291 294 297 301 304 307 308 310 313 317 321 323 326 329 332 335 337 338 339 339 339 339 339 339 337 336 334 332 331 329 328 329 329 330 330
31 13 354 345 340 337 333 332 330 326 320 314 307 300 292 288 289 294 301 308 314 318 319 315 306 298 291 287 284 283 286 290 289 274 248 235 229 91 85 109 164 212 234 248 259 267 272 276 282 286 289 290 291 293 296 299 301 305 311 316 319 322 325 328 331 334 336 338 338 339 339 339 338 338 337 336 336 334 332 330 327 325 324 325 326 327
9 349 333 325 321 318 315 312 311 311 310 308 305 301 297 293 291 291 293 296 301 307 309 307 301 294 288 282 273 270 344 349 347 325 246 223 133 94 83 73 13 303 287 282 282 285 287 287 286 287 287 287 288 291 294 297 301 305 311 315 319 323 326 328 330 333 334 336 337 337 337 337 336 335 334 334 333 332 331 329 326 322 320 320 323 325
21 13 2 351 339 329 321 315 307 303 301 297 295 294 293 291 288 286 286 288 288 285 277 279 277 271 264 259 255 347 60 41 36 45 56 67 88 85 65 36 5 341 319 306 296 294 296 291 287 286 286 286 289 293 296 300 303 307 311 316 320 322 323 325 327 329 331 332 333 333 333 334 333 333 332 331 330 330 330 329 327 324 320 319 321 323
24 23 22 20 17 14 10 8 1 349 332 311 295 282 271 265 260 257 257 263 247 227 230 234 248 249 242 229 222 182 57 38 27 29 40 60 83 77 51 29 12 360 346 330 314 300 293 289 287 290 292 290 292 296 300 303 308 312 314 316 318 319 319 321 323 325 327 328 328 329 329 330 330 330 330 329 329 328 329 330 329 327 324 322 322 323
16 20 24 25 24 23 24 34 40 35 25 22 21 4 212 208 196 163 82 108 192 194 179 179 197 231 245 231 211 144 56 40 29 26 33 63 86 71 37 19 7 358 348 331 309 289 280 281 285 293 299 294 292 294 300 305 308 310 311 312 313 314 315 317 319 321 322 323 324 324 325 326 327 328 328 328 327 327 328 329 329 328 326 325 324 324
345 352 6 16 21 26 43 76 81 69 57 58 67 83 102 111 100 84 72 81 103 111 107 115 138 190 235 239 218 136 64 45 33 28 33 69 71 45 21 9 2 357 348 337 321 299 283 280 284 290 293 292 294 298 303 306 307 308 308 307 308 310 312 315 316 318 318 319 319 320 321 323 324 325 326 326 326 326 327 328 328 328 327 326 325 325
356 6 23 32 41 57 81 99 100 88 76 74 77 81 84 88 86 81 77 80 83 84 83 77 70 62 41 263 211 118 66 43 34 27 28 50 47 27 6 4 4 3 1 357 349 324 298 287 281 278 283 291 298 303 305 307 308 308 308 308 309 310 312 314 315 316 315 315 316 316 318 319 321 322 323 324 325 325 326 327 329 329 328 327 326 325
23 40 51 56 62 73 88 101 103 97 86 80 76 74 72 72 70 68 66 67 68 69 68 61 55 48 42 36 53 106 60 40 31 21 21 35 37 20 4 2 2 4 7 15 20 356 314 298 282 273 286 297 301 303 305 308 309 310 310 311 312 313 315 317 317 316 315 314 314 315 316 317 318 319 320 322 323 324 325 327 329 330 329 328 328 326
41 54 59 61 65 72 83 92 98 96 85 72 64 60 59 57 54 52 50 51 52 53 53 50 46 40 35 31 29 91 60 37 25 12 7 17 19 6 355 353 353 353 356 4 7 329 280 291 296 299 302 303 305 306 307 309 311 312 314 316 317 318 319 320 319 318 317 316 316 316 316 316 317 318 319 320 321 323 324 327 329 330 330 330 329 328
54 62 66 67 70 74 79 84 86 82 72 58 47 42 40 38 35 32 32 33 34 36 37 37 33 27 17 3 349 350 22 21 11 1 355 357 359 355 346 344 344 343 344 344 336 310 278 282 294 301 304 305 306 308 309 311 313 316 319 321 321 321 321 321 321 320 320 320 320 319 319 320 320 320 320 321 322 323 325 327 329 330 330 330 330 329
60 66 71 72 73 73 73 73 71 64 52 40 29 22 17 14 12 11 11 12 14 18 24 23 20 13 4 351 338 328 326 338 346 347 345 346 347 346 342 341 340 339 339 337 333 320 300 295 300 305 306 306 306 307 310 314 317 321 323 323 322 321 321 322 322 323 323 323 324 324 324 324 324 324 324 325 326 327 327 328 328 329 329 330 330 329
61 66 68 67 65 61 58 53 47 39 30 21 13 6 1 359 357 357 357 359 3 9 17 18 13 3 354 345 337 327 320 321 329 338 341 342 341 339 338 336 336 337 337 334 333 328 317 310 310 312 311 310 309 309 312 318 323 325 325 324 322 321 321 323 324 325 325 325 326 326 326 327 328 328 329 329 329 329 328 327 326 326 327 328 328 328
60 61 59 53 48 42 37 30 24 18 13 7 1 356 353 352 352 353 355 358 4 17 39 50 42 10 343 329 325 322 319 319 327 338 343 342 339 335 332 327 329 331 331 328 327 326 320 315 314 314 313 311 310 311 316 322 325 326 324 322 321 321 321 323 324 325 325 325 325 325 326 327 328 328 329 329 328 327 326 325 324 324 325 325 325 325
57 55 49 41 35 29 23 17 12 8 5 0 356 353 351 352 353 356 359 3 11 26 53 82 94 82 20 324 311 311 314 320 327 335 340 339 334 328 322 316 317 320 318 316 315 316 314 312 311 311 309 305 305 310 315 320 322 322 320 320 321 321 321 323 325 326 325 324 324 324 325 326 326 326 326 326 325 324 323 322 323 323 324 324 323 322
52 48 41 33 26 20 15 11 7 4 1 358 356 355 356 359 2 6 8 11 12 13 16 22 36 34 4 330 317 314 314 315 316 317 319 323 323 318 311 305 305 305 304 301 301 303 304 303 304 305 304 302 302 305 310 315 317 317 317 318 318 318 320 322 324 325 324 324 323 323 323 324 324 323 323 322 322 323 323 323 323 324 326 326 325 324
47 43 37 29 22 17 13 9 5 1 358 357 358 0 4 9 12 13 13 11 9 7 6 3 360 353 344 335 326 320 315 314 314 314 315 316 318 315 308 303 301 300 299 297 296 294 292 290 290 292 297 300 301 303 306 309 311 313 315 316 316 316 318 321 323 323 322 322 322 322 321 321 321 321 321 321 322 323 323 324 324 326 327 328 327 326
42 38 33 25 18 13 10 6 1 357 357 359 2 7 11 12 11 10 9 9 9 10 11 10 6 0 354 346 338 332 327 324 326 329 332 332 330 325 318 312 308 305 301 297 293 289 285 283 283 284 288 293 297 300 303 304 306 309 313 314 313 314 316 319 320 319 319 319 319 319 319 318 318 319 319 320 321 321 322 322 323 325 327 327 326 325
37 32 26 18 10 3 359 355 352 353 357 3 8 11 11 10 8 6 7 7 9 10 9 7 3 360 357 358 360 2 3 3 0 357 352 345 340 336 333 328 320 313 309 303 296 288 283 280 280 281 283 286 290 293 294 296 300 304 307 307 307 309 311 313 315 315 316 315 315 316 316 317 317 318 319 320 320 320 322 322 322 323 325 325 324 321
31 25 18 8 360 353 348 344 344 349 358 7 11 14 12 9 6 4 4 4 5 4 4 1 358 355 354 358 4 12 17 15 9 3 358 353 349 345 343 338 334 331 328 322 311 299 290 284 281 280 281 283 286 287 289 292 296 299 302 303 306 308 309 309 311 313 314 314 314 315 315 316 317 318 319 319 320 321 322 322 322 321 321 322 322 321
21 13 5 357 351 347 344 345 348 354 1 8 13 14 11 8 5 4 3 2 360 359 357 356 354 352 352 354 357 2 6 7 4 1 1 2 360 354 346 339 332 328 330 334 330 321 309 300 292 288 287 287 287 288 290 294 297 300 301 303 306 309 309 308 310 312 313 312 313 314 316 317 318 318 319 318 318 319 320 321 320 320 320 320 321 321
7 359 353 350 350 351 353 357 0 3 6 11 13 11 7 5 5 5 4 0 356 354 352 351 350 349 350 350 351 351 352 354 356 359 2 5 4 356 345 337 330 324 323 333 336 332 324 316 307 300 298 297 296 295 294 295 296 297 297 298 301 302 301 303 306 309 310 310 312 314 317 318 319 318 317 316 316 317 318 319 319 319 320 321 321 321
356 351 350 352 355 359 4 6 7 9 12 15 13 9 5 3 5 6 4 359 354 350 349 348 347 346 346 345 344 344 344 345 348 352 357 359 357 351 343 336 331 326 324 326 328 328 324 319 313 307 302 299 297 293 291 291 292 293 293 294 296 296 296 298 302 304 306 308 310 313 317 320 318 316 314 314 314 315 316 317 318 319 320 321 321 322
354 351 352 354 358 2 4 5 7 9 13 15 13 8 3 2 3 4 1 357 351 347 345 345 344 342 339 337 337 337 337 339 342 345 348 349 347 344 341 337 334 330 326 323 319 316 314 313 312 310 307 302 296 290 286 287 290 291 291 293 295 296 297 298 300 302 304 306 308 311 317 319 317 315 313 314 315 315 316 316 317 318 319 320 321 321
352 350 351 352 355 357 359 359 0 3 5 7 7 4 0 359 357 356 353 351 346 343 341 341 339 335 330 329 330 331 332 333 334 336 338 340 340 340 340 339 339 337 333 328 321 315 309 307 306 306 305 302 296 290 287 286 286 288 289 292 294 295 296 297 300 303 306 306 307 310 316 318 319 319 319 318 317 315 314 314 314 315 316 317 319 319
347 345 346 347 349 352 352 352 353 353 354 354 354 354 353 353 352 349 346 344 342 340 337 334 331 327 323 322 323 324 325 325 325 327 329 333 335 336 337 338 339 339 338 334 330 325 320 315 309 304 300 294 289 285 286 287 287 287 288 291 291 292 293 295 299 303 306 307 309 313 318 322 326 327 325 322 318 314 312 312 311 311 311 313 314 315
341 342 342 343 344 347 347 347 346 346 345 345 344 344 344 345 346 344 342 342 340 337 332 327 324 319 317 316 315 316 316 316 317 320 324 327 330 332 334 336 337 337 336 335 334 332 329 323 316 307 297 290 285 283 284 286 288 290 291 291 291 291 293 296 300 305 308 310 313 316 318 320 321 322 322 320 315 311 310 309 309 308 308 309 309 309
339 341 342 341 342 342 343 342 342 342 342 340 339 337 337 338 339 339 340 341 340 336 329 324 318 314 311 309 308 308 308 310 312 315 319 322 325 328 331 333 335 335 336 336 337 337 334 330 324 316 304 292 286 286 287 289 293 296 297 297 298 299 300 303 307 310 313 314 313 312 312 312 313 315 317 316 312 309 307 306 305 305 306 306 306 306
338 340 340 339 338 338 337 337 338 339 339 337 335 333 331 331 332 334 336 338 338 336 331 325 318 310 306 304 303 303 303 305 307 310 313 316 320 323 326 330 332 334 336 337 337 336 335 332 327 322 317 310 301 295 296 303 309 312 311 310 311 311 311 311 312 312 312 312 311 311 311 312 313 314 314 313 310 307 305 304 303 303 304 305 306 305